カタログに戻る

COSMOS 1574

運用中軍事PO
NORAD 15055·PAYLOAD·🇷🇺 Russia

打ち上げ Jun 21, 1984 から Plesetsk Cosmodrome

Loading…

次のパス (今後24時間)

TLE

最新Source: Space-Track

元期: Sep 14, 2026, 05:49 UTC

1 15055U 84062A   26257.24271924  .00000058  00000-0  45009-4 0  9994
2 15055  82.9610  12.4010 0027794 160.3980 217.8067 13.74564421117791

AllMySatでCOSMOS 1574をリアルタイム追跡

Download on the App Store